Location: Savignano sul Rubicone
(44.0950°N, 12.4090°E)
Time: 12:32:13
(UTC+01:00)

Tiangong 2 - Pass Details

Date: 20 February 2019
Orbit: 380 x 389 km, 42.8° (Epoch: 25 March)

Event Time Altitude Azimuth Distance (km) Brightness Sun altitude
Rises 19:14:37 0° 271° (W) 2,254 6.8 -16.6°
Reaches altitude 10° 19:17:25 10° 244° (WSW) 1,395 4.9 -17.1°
Maximum altitude 19:19:06 14° 212° (SSW) 1,194 3.9 -17.4°
Drops below altitude 10° 19:20:46 10° 179° (S) 1,388 3.8 -17.7°
Enters shadow 19:21:11 - 173° (S) 1,485 3.9 -17.7°
